Location: Waco, TX
(31.5480°N, 97.1670°W)
Time: 15:52:33
(UTC-05:00)

ISS - Pass Details

Date: 15 August 2019
Orbit: 410 x 421 km, 51.6° (Epoch: 22 August)

Event Time Altitude Azimuth Distance (km) Brightness Sun altitude
Rises 16:56:32 0° 331° (NNW) 2,369 0.3 40.4°
Reaches altitude 10° 16:59:17 10° 355° (N) 1,502 -0.9 39.8°
Maximum altitude 17:01:23 15° 34° (NE) 1,213 -1.6 39.4°
Drops below altitude 10° 17:03:29 10° 73° (ENE) 1,498 -1.3 38.9°
Sets 17:06:13 0° 97° (E) 2,357 -0.4 38.4°
